Location: Gülübeli Geçidi
(36.8411°N, 29.7411°E)
Time: 07:49:59
(UTC+00:00)

BREEZE-M DEB (TANK) - Pass Details

Date: 15 May 2026
Orbit: 310 x 13091 km, 49.6° (Epoch: 3 June)

Event Time Altitude Azimuth Distance (km) Brightness Sun altitude
Rises 18:02:49 0° 315° (NW) 2,228 7.9 -11.4°
Reaches altitude 10° 18:04:16 10° 323° (NW) 1,582 6.4 -11.7°
Maximum altitude 18:07:16 44° 39° (NE) 976 4.0 -12.2°
Enters shadow 18:13:22 14° 108° (ESE) 3,360 6.2 -13.2°
